Printer-friendly version
Follow the MPC on Twitter Follow the MPC on Facebook The MPC blog
Minor Planet Center

MPEC 2006-O33 : 2006 OD5

The following Minor Planet Electronic Circular may be linked-to from your own Web pages, but must not otherwise be redistributed electronically.

A form allowing access to any MPEC is at the bottom of this page.


Read MPEC 2006-O32 Read MPEC 2006-O34


M.P.E.C. 2006-O33                                Issued 2006 July 23, 04:01 UT

     The Minor Planet Electronic Circulars contain information on unusual
         minor planets and routine data on comets.  They are published
   on behalf of Commission 20 of the International Astronomical Union by the
          Minor Planet Center, Smithsonian Astrophysical Observatory,
                          Cambridge, MA 02138, U.S.A.

                  Supported in part by the Brinson Foundation
                  Supported in part by the TABASGO Foundation
             Prepared using the Tamkin Foundation Computer Network

                              MPC@CFA.HARVARD.EDU
          URL http://cfa-www.harvard.edu/iau/mpc.html  ISSN 1523-6714

                                   2006 OD5

Observations:
     K06O05D* C2006 07 21.35448 22 30 37.51 -02 26 10.4          18.9 V EO033703
     K06O05D  C2006 07 21.36095 22 30 38.26 -02 26 09.2          20.2 V EO033703
     K06O05D  C2006 07 21.36738 22 30 38.91 -02 26 14.1          19.3 V EO033703
     K06O05D  C2006 07 21.37383 22 30 39.78 -02 26 14.6          20.3 V EO033703
     K06O05D  C2006 07 21.41665 22 30 44.74 -02 26 22.3          19.8 V EO033703
     K06O05D  C2006 07 21.42442 22 30 45.57 -02 26 24.3          19.3 V EO033703
     K06O05D  C2006 07 21.43210 22 30 46.44 -02 26 26.4          20.0 V EO033703
     K06O05D  C2006 07 21.43980 22 30 47.30 -02 26 28.1          19.7 V EO033703
     K06O05D  C2006 07 21.45853 22 30 49.33 -02 26 31.8          19.4 V EO033703
     K06O05D  C2006 07 21.46000 22 30 49.53 -02 26 32.2          19.5 V EO033703
     K06O05D  C2006 07 21.46152 22 30 49.74 -02 26 33.3          19.8 V EO033703
     K06O05D  C2006 07 21.96613 22 31 50.84 -02 28 32.9          19.3 V EO033198
     K06O05D  C2006 07 21.96966 22 31 51.26 -02 28 33.7          19.4 V EO033198
     K06O05D  C2006 07 21.97143 22 31 51.47 -02 28 34.3          19.3 V EO033198
     K06O05D  C2006 07 21.97261 22 31 51.60 -02 28 34.4          19.1 V EO033198
     K06O05D  C2006 07 22.30838 22 32 31.99 -02 29 53.4          19.6 V EO033G96
     K06O05D  C2006 07 22.30964 22 32 32.13 -02 29 53.7          19.8 V EO033G96
     K06O05D  C2006 07 22.31090 22 32 32.28 -02 29 53.8          19.4 V EO033G96
     K06O05D  C2006 07 22.31218 22 32 32.46 -02 29 54.4          19.6 V EO033G96
     K06O05D  C2006 07 22.34602 22 32 36.05 -02 30 05.1          20.2 R EO033734
     K06O05D  C2006 07 22.34748 22 32 36.24 -02 30 05.1          20.1 R EO033734
     K06O05D  C2006 07 22.34895 22 32 36.36 -02 30 05.6          20.2 R EO033734
     K06O05D  C2006 07 22.35186 22 32 36.69 -02 30 05.7          20.1 R EO033734
     K06O05D  C2006 07 22.99344 22 33 54.55 -02 32 57.1                 EO033J95
     K06O05D  C2006 07 23.00209 22 33 55.58 -02 33 00.2                 EO033J95
     K06O05D  C2006 07 23.01251 22 33 56.81 -02 33 02.4          19.9 R EO033J95
     K06O05D  C2006 07 23.02352 22 33 57.89 -02 33 03.6          19.6 V EO033A44
     K06O05D  C2006 07 23.04532 22 34 00.48 -02 33 09.7          19.8 V EO033A44
     K06O05D  C2006 07 23.06057 22 34 02.24 -02 33 14.0          19.9 V EO033A44

Observer details:
198 Wildberg.  Observer R. Apitzsch.  0.35-m f/4.2 reflector + CCD.
703 Catalina Sky Survey.  Observer R. Hill.  Measurers E. C. Beshore,
    E. J. Christensen, G. J. Garradd, A. R. Gibbs, A. D. Grauer, R. E. Hill,
    R. A. Kowalski, S. M. Larson, R. H. McNaught.  0.68-m Schmidt + CCD.
734 Farpoint Observatory.  Observer G. Hug.  0.7-m reflector + CCD.
A44 Altschwendt.  Observer W. Ries.  0.45-m f/3.5 reflector + CCD.
G96 Mt. Lemmon Survey.  Observer E. J. Christensen.  Measurers E. C. Beshore,
    E. J. Christensen, G. J. Garradd, A. R. Gibbs, A. D. Grauer, R. E. Hill,
    R. A. Kowalski, S. M. Larson, R. H. McNaught.  1.5-m reflector + CCD.
J95 Great Shefford.  Observer P. Birtwhistle.  0.40-m f/6.0 Schmidt-Cassegrain
    + CCD.

Orbital elements:
2006 OD5                                                 Earth MOID = 0.2505 AU
Epoch 2006 Sept. 22.0 TT = JDT 2454000.5                MPC
M 358.81223              (2000.0)            P               Q
n   0.21964066     Peri.  222.21472     +0.98768638     -0.11532034
a   2.7205761      Node   143.99806     +0.13922826     +0.95611550
e   0.5497335      Incl.   10.36126     -0.07135192     +0.26934063
P   4.49           H   19.2           G   0.15           U   9
Residuals in seconds of arc
060721 703  1.2-  1.2-    060721 703  0.5+  0.4-    060722 734  0.0   0.0
060721 703  1.0-  1.4+    060721 198  0.3+  0.4+    060722 734  0.7-  0.1-
060721 703  2.2-  2.1-    060721 198  0.5+  0.5+    060722 734  0.8-  0.5+
060721 703  0.1-  1.1-    060721 198  0.6+  0.3+    060722 J95  0.1-  0.1-
060721 703  1.7+  0.7+    060721 198  0.4+  0.5+    060723 J95  0.1+  0.8-
060721 703  0.9+  0.4+    060722 G96  0.1-  0.2+    060723 J95  0.2+  0.1-
060721 703  1.0+  0.0     060722 G96  0.2-  0.3+    060723 A44  0.5-  1.2+
060721 703  0.8+  0.0     060722 G96  0.1-  0.5+    060723 A44  0.3+  1.1+
060721 703  0.6-  0.5+    060722 G96  0.3+  0.2+    060723 A44  0.1+  1.0+
060721 703  0.1-  0.4+    060722 734  0.3-  0.3-

Ephemeris:
2006 OD5                 a,e,i = 2.72, 0.55, 10                  q = 1.2250
Date    TT    R. A. (2000) Decl.     Delta      r     Elong.  Phase     V
2006 07 24    22 35.94   -02 37.6    0.488    1.428   140.9    26.6    19.6
2006 08 03    22 57.62   -03 59.4    0.411    1.376   146.3    24.2    19.1
2006 08 13    23 22.49   -06 32.1    0.349    1.329   151.1    21.6    18.6
2006 08 23    23 51.19   -10 23.0    0.302    1.290   154.4    19.8    18.1
2006 09 02    00 23.50   -15 15.9    0.271    1.259   154.5    20.2    17.9
2006 09 12    00 57.81   -20 20.7    0.257    1.238   151.3    23.0    17.8
2006 09 22    01 30.67   -24 34.3    0.257    1.227   146.7    26.7    17.9
2006 10 02    01 58.52   -27 10.3    0.269    1.226   142.9    29.5    18.1
2006 10 12    02 19.53   -27 56.9    0.290    1.236   140.8    30.7    18.3
2006 10 22    02 33.73   -27 05.2    0.319    1.257   140.3    30.4    18.5
2006 11 01    02 42.81   -24 51.1    0.356    1.287   140.6    29.3    18.8
2006 11 11    02 48.99   -21 35.6    0.401    1.326   141.0    28.1    19.1
2006 11 21    02 54.11   -17 40.2    0.457    1.372   140.5    27.3    19.4
2006 12 01    02 59.63   -13 24.7    0.525    1.424   138.8    27.1    19.8
2006 12 11    03 06.37   -09 07.4    0.606    1.481   135.8    27.6    20.2
2006 12 21    03 14.63   -05 00.4    0.701    1.541   131.6    28.5    20.6
2006 12 31    03 24.54   -01 11.2    0.810    1.605   126.8    29.4    21.1
2007 01 10    03 35.97   +02 16.4    0.932    1.670   121.4    30.2    21.5
2007 01 20    03 48.75   +05 21.6    1.066    1.737   115.8    30.6    21.9

Gareth V. Williams           (C) Copyright 2006 MPC           M.P.E.C. 2006-O33

Read MPEC 2006-O32 Read MPEC 2006-O34


MPEC number:

Enter an MPEC number in one of the following forms:

  • 1997-B01 (the full form)
  • J97B01 (the packed version of the full form)
  • B01 (the abbreviated form)

Valid HTML 4.01!